Regional Weather Roundup
Issued by NWS Upton, NY

Home | Current Version | Previous Version | Text Only | Print | Product List | Glossary On
Versions: 1 2 3 4 5 6 7 8 9 10 11 12 13 14 15 16 17 18 19 20 21 22 23 24 25 26 27 28 29
000
ASUS41 KOKX 301405
RWROKX

REGIONAL WEATHER ROUNDUP
NATIONAL WEATHER SERVICE NEW YORK NY
1000 AM EDT THU OCT 30 2014

NOTE: "FAIR" INDICATES FEW OR NO CLOUDS BELOW 12,000 FEET WITH NO
SIGNIFICANT WEATHER AND/OR OBSTRUCTIONS TO VISIBILITY.

NYZ071-072-176-178-NJZ106-104-301500-
NEW YORK CITY METRO AREA


CITY           SKY/WX    TMP DP  RH WIND       PRES   REMARKS
CENTRAL PARK   MOSUNNY   50  40  68 VRB3      30.03R
LAGUARDIA APRT MOSUNNY   53  40  61 NW15      30.00R
KENNEDY INTL   MOSUNNY   57  42  57 NW13      30.00S
NEWARK/LIBERTY MOSUNNY   54  41  61 NW10      30.01R
BRNX BOT. GARD   N/A     52  39  62 NW2       30.01F
TETERBORO      SUNNY     53  42  66 NW5       29.99S
$$

NYZ177-179-078>081-301500-
LONG ISLAND NEW YORK

CITY           SKY/WX    TMP DP  RH WIND       PRES   REMARKS
FARMINGDALE    SUNNY     55  46  71 NW6       29.99S
ISLIP          MOSUNNY   55  47  74 NW7       29.97S
SHIRLEY        SUNNY     56  46  69 N8        29.99R
WESTHAMPTON    SUNNY     57  45  64 N7        29.99S
MONTAUK POINT    N/A     56  42  59 NW8       29.98S
$$

NYZ052-065-067-301500-
HUDSON VALLEY

CITY           SKY/WX    TMP DP  RH WIND       PRES   REMARKS
WHITE PLAINS   CLOUDY    50  42  74 NW8       29.98S
NEWBURGH       MOSUNNY   48  45  87 W12       30.01
MONTGOMERY     SUNNY     47  42  83 S5        29.99F
POUGHKEEPSIE   MOSUNNY   49  45  86 CALM      29.99S
ALBANY         PTSUNNY   50  39  66 W12       30.00R
$$

NJZ001-105-106-008-010-013-015-019>022-104-301500-
NEW JERSEY

CITY           SKY/WX    TMP DP  RH WIND       PRES   REMARKS
NEWARK/LIBERTY MOSUNNY   54  41  61 NW10      30.01R
TETERBORO      SUNNY     53  42  66 NW5       29.99S
CALDWELL       SUNNY     46  43  89 CALM      30.01F
MORRISTOWN     MOSUNNY   52  48  87 NW7       30.01F
SOMERVILLE     SUNNY     47  45  93 CALM      30.01S
SUSSEX         PTSUNNY   46  44  93 SW5       30.02S
ANDOVER          N/A     41  41 100 CALM      30.03R
TRENTON        SUNNY     50  43  77 NW7       30.02S
MILLVILLE      CLOUDY    51  45  79 NW6       30.03S
ATLANTIC CITY  MOSUNNY   53  45  74 N10       30.02S
WRIGHTSTOWN    SUNNY     50  50 100 N8        30.00S
TOMS RIVER     SUNNY     50  46  87 N3        30.02S
BELMAR         SUNNY     48  43  81 NW13      30.01R
$$

PAZ047>061-062-071-301500-
EASTERN PENNSYLVANIA

CITY           SKY/WX    TMP DP  RH WIND       PRES   REMARKS
PHILADELPHIA   MOSUNNY   53  40  61 N13       30.03S
ALLENTOWN      SUNNY     46  41  82 SW3       30.04R
SCRANTON       MOSUNNY   47  36  65 NW15      30.03S
$$

CTZ002-004>006-009-010-012-RIZ004-006-007-MAZ004-011-015-301500-
SOUTHERN NEW ENGLAND
 IN CT

CITY           SKY/WX    TMP DP  RH WIND       PRES   REMARKS
BRADLEY INTL   PTSUNNY   50  42  74 CALM      29.97S
HARTFORD       MOSUNNY   47  43  86 SE8       29.99S
DANBURY        PTSUNNY   46  42  86 CALM      30.00S
WTRBRY/OXFORD  MOSUNNY   46  41  81 N7        30.00S
BRIDGEPORT     MOSUNNY   53  46  77 N6        29.98S
MERIDEN        CLOUDY    50  43  77 CALM      29.98F
NEW HAVEN      MOSUNNY   54  45  71 N9        29.98S
CHESTER        PTSUNNY   52  41  66 N7        29.98S
GROTON         PTSUNNY   54  42  64 NW10      29.97S
WILLIMANTIC    PTSUNNY   44  42  93 CALM      29.98S

 IN RI

CITY           SKY/WX    TMP DP  RH WIND       PRES   REMARKS
PROVIDENCE     MOSUNNY   53  39  59 W8        29.96S
BLOCK ISLAND   SUNNY     54  39  58 N12       29.97S
WESTERLY       SUNNY     54  40  59 N9        29.97S

 IN MA

CITY           SKY/WX    TMP DP  RH WIND       PRES   REMARKS
BOSTON         MOSUNNY   54  40  59 W13       29.93F
WORCESTER      CLOUDY    45  38  76 W8        29.95R
WESTFIELD      MOSUNNY   48  42  80 CALM      29.97S
PROVINCETOWN   MOSUNNY   55   1  11 NW10      29.94S
NANTUCKET      PTSUNNY  N/A N/A N/A N12       29.94S
$$

ANZ330-335-338-340-345-350-353-355-301500-
COASTAL MARINE OBSERVATIONS


STATION/POSITION TIME  SKY/WX   TEMP    WIND        PRES    VSBY  WAVE
                                AIR SEA DIR/SP/G                  HT/PER
                 (UTC)          (F)     (DEG/KT/KT) (MB)    (MI)  (FT/S)
NY HARB ENTRANCE 1400            53 61  320/ 12/ 14 1015.8          2/ 6
4S FIRE IS       1400               62                N/A           2/ 6
20S FIRE ISLAND  1400            56 62  330/  4/  6 1015.3          2/ 6
23SW MTP         1400                                 N/A           2/ 7
HUDSON CANYON    1400            60 64  350/  6/ 10 1015.0          2/ 5
EXECUTION ROCKS  1400            57 60  330/  8/ 12   N/A
WESTERN LI SOUND 1400            52     290/  6/ 10   N/A           0
CENTRAL LI SOUND 1300            54 61  320/ 10/ 14   N/A           1
EASTERN LI SOUND 1300            58 62  310/  6/  8   N/A
ROBBINS REEF     1400            51     310/ 10/ 11 1014.8
$$


>>>>>>>>>>>>>>>>>>>>>>>>>>>> KEY <<<<<<<<<<<<<<<<<<<<<<<<<<<
>                                                          <
>     SKY/WX - SKY CONDITION/PRESENT WEATHER               <
>     TMP    - TEMPERATURE IN FAHRENHEIT                   <
>     DP     - DEWPOINT IN FAHRENHEIT                      <
>     RH     - RELATIVE HUMIDITY IN PERCENT                <
>     WIND   - DIRECTION AND SPEED IN MPH                  <
>     PRES   - MEAN SEA LEVEL PRESSURE IN INCHES OF HG     <
>     WCI    - WIND CHILL INDEX                            <
>     VSB    - VISIBILITY IN MILES                         <
>     HX     - HEAT INDEX                                  <
>     TC     - TEMPERATURE IN CELSIUS                      <
>     VRB    - VARIABLE WIND DIRECTION                     <
>                                                          <
>>>>>>>>>>>>>>>>>>>>>>>>>>>> KEY <<<<<<<<<<<<<<<<<<<<<<<<<<<





USA.gov is the U.S. government's official web portal to all federal, state and local government web resources and services.